Location: Weatherford
(35.5260°N, 98.7070°W)
Time: 03:01:13
(UTC-05:00)

OPAL - Visible Passes

Search period start: 01 May 2016 00:00
Search period end: 11 May 2016 00:00
Orbit: 743 x 796 km, 100.2° (Epoch: 30 April)

Date Brightness Start Highest point End Pass type
(mag) Time Alt. Az. Time Alt. Az. Time Alt. Az.
01 May 9.7 02:04:58 10° NNE 02:06:47 22° NNE 02:06:47 22° NNE visible
01 May 9.9 03:45:56 10° NNW 03:47:05 12° NW 03:47:05 12° NW visible
02 May 10.1 01:30:07 10° NE 01:30:57 14° NE 01:30:57 14° NE visible
02 May 9.4 03:08:57 10° N 03:11:14 22° NNW 03:11:14 22° NNW visible
03 May 9.3 02:33:00 10° N 02:35:24 28° N 02:35:24 28° N visible
04 May 9.6 01:57:39 10° NNE 01:59:34 23° NNE 01:59:34 23° NNE visible
04 May 9.7 03:37:55 10° NNW 03:39:52 16° NW 03:39:52 16° NW visible
05 May 10.1 01:23:02 10° NE 01:23:44 13° NE 01:23:44 13° NE visible
05 May 9.2 03:01:21 10° N 03:04:02 26° NNW 03:04:02 26° NNW visible
06 May 9.2 02:25:35 10° NNE 02:28:11 31° N 02:28:11 31° N visible
07 May 9.6 01:50:24 10° NNE 01:52:21 22° NE 01:52:21 22° NE visible
07 May 9.5 03:30:05 10° NNW 03:32:39 19° NW 03:32:39 19° NW visible
08 May 10.2 01:16:05 10° NE 01:16:30 12° NE 01:16:30 12° NE visible
08 May 9.0 02:53:49 10° N 02:56:48 31° NNW 02:56:48 31° NNW visible
09 May 9.1 02:18:12 10° NNE 02:20:58 33° NNE 02:20:58 33° NNE visible
09 May 9.8 03:59:50 10° NW 04:01:16 12° WNW 04:01:16 12° WNW visible
10 May 9.6 01:43:12 10° NE 01:45:07 21° NE 01:45:07 21° NE visible
10 May 9.2 03:22:24 10° NNW 03:25:25 23° NW 03:25:25 23° NW visible
